CAPE
0 0 0 0 0 0 0 0 0 0 0 0 0 97 178 511 318 481 1075 1290 1247 1611 1683 1209 1822 1967 1917 1741 1736 1782 1800 1865 1905 1837 1715 1672 1721 1736 1707 1699 1645 1231 650 198 193 243 354 362 465
0 0 0 0 0 0 2 0 0 0 0 0 0 500 626 790 1142 1252 1125 1394 1310 1629 1440 1146 1776 1926 1854 1669 1521 1520 1647 1729 1724 1700 1682 1682 1653 1622 1491 1501 1310 812 448 101 246 361 457 389 456
0 0 0 0 0 0 4 0 0 0 0 0 0 320 607 604 1314 923 908 1429 1383 1625 1370 1384 1828 1837 1776 1484 1457 1424 1436 1493 1578 1612 1648 1644 1606 1550 1491 1476 1407 744 241 153 346 560 680 495 394
0 0 0 0 0 0 0 0 0 0 0 0 1 542 758 1034 986 1023 1448 1386 1378 1511 1295 1727 1836 1819 1717 1600 1506 1392 1348 1401 1508 1571 1584 1565 1518 1472 1479 1461 1332 818 216 234 438 850 871 849 636
0 0 0 0 0 0 0 0 0 0 0 0 305 614 866 1417 1683 1914 1617 1378 1272 1499 1263 1461 1794 1795 1707 1580 1427 1362 1340 1324 1417 1489 1484 1460 1407 1354 1395 1339 969 762 601 439 512 831 1132 1120 1045
0 0 0 0 0 0 0 0 0 0 0 0 140 837 914 1709 2027 2015 1633 1432 1237 1539 1449 1161 1676 1726 1624 1595 1435 1271 1222 1283 1340 1346 1363 1422 1356 1285 1253 1183 866 694 634 632 649 827 929 935 842
0 0 0 0 0 0 0 0 0 0 0 0 417 754 608 1754 1921 1977 1739 1461 1396 1490 1541 1198 988 1348 1686 1590 1442 1246 1175 1245 1346 1383 1428 1493 1456 1375 1320 1172 834 611 572 521 586 700 814 746 683
0 0 0 0 0 0 0 0 0 0 0 0 76 582 516 1480 1992 1867 1681 1411 1340 1474 1384 1188 1020 673 679 992 1576 1374 1269 1249 1249 1302 1365 1366 1335 1240 1098 888 810 510 367 317 377 415 432 408 370
0 0 0 0 0 0 0 0 0 0 0 0 0 0 0 1687 1558 1632 1540 1329 1297 1340 1442 1220 777 827 620 619 1049 1356 1264 1357 1324 1217 1310 820 186 379 446 419 594 751 622 364 292 270 249 241 245
0 0 0 0 0 0 0 0 0 0 0 0 0 564 1187 1396 1356 1349 1216 1117 1047 1185 1347 1317 1051 909 733 471 877 881 762 704 674 662 823 518 533 506 308 467 844 685 782 796 535 416 371 191 0
0 0 0 0 0 0 0 0 0 0 0 0 0 413 1508 1532 1257 992 839 663 669 909 1236 1319 1482 1325 894 545 937 1023 952 1128 1197 1133 1208 1070 873 826 693 635 598 678 687 370 421 342 204 75 28
0 0 0 0 0 0 0 0 0 0 0 0 0 0 1055 1600 1636 1256 1033 914 885 956 1163 1374 1569 1685 1433 1013 1056 1052 1017 1272 1238 1180 1375 1227 1117 1036 994 963 854 893 588 510 465 274 290 282 205
0 0 0 0 0 0 0 0 0 0 0 0 0 0 0 882 1504 1504 1489 1318 1128 1025 1094 1330 1644 1799 1788 1872 1482 1438 1351 1397 1380 1360 1372 1347 1108 1076 1021 1082 1131 1096 1004 871 755 558 448 304 234
0 0 0 0 0 0 0 0 0 0 0 0 0 0 0 0 0 117 199 1606 1713 1626 1315 1248 1592 1907 1932 1921 2057 1836 1827 1621 1625 1547 1276 1098 1300 1468 1200 1237 1159 1143 1158 1142 1113 994 885 638 436
0 0 0 0 0 0 0 0 0 0 0 0 0 0 0 0 0 0 0 12 1402 1937 2116 1846 1522 1786 2039 1968 2081 1882 1802 1685 1655 1520 1254 1137 1077 1382 1625 1537 1493 1432 1435 1408 1336 1236 1130 925 765
0 0 0 0 0 0 0 0 0 0 0 0 0 0 0 0 0 0 0 0 0 95 1439 2113 1625 1574 1813 1875 1967 1851 1723 1748 1677 1451 1348 1333 1467 1564 1892 1784 1662 1595 1485 1336 1304 1260 1160 1126 1023
0 0 0 0 0 0 0 0 0 0 0 0 0 0 0 0 0 0 0 0 0 0 0 702 1868 1816 1881 1835 1681 1803 1799 1769 1659 1740 1795 1745 1822 1789 2112 1852 1871 2008 1726 1563 1352 1402 1247 1256 1189
0 0 0 0 0 0 0 0 0 0 0 0 0 0 0 0 0 0 0 0 0 0 0 203 766 1582 1764 1656 1674 1759 1693 1684 1576 1456 1466 1468 1421 1372 1804 1912 1982 1847 1710 1720 1708 1591 1514 1256 1236
0 0 0 0 0 0 0 0 0 0 0 0 0 0 0 0 0 0 0 0 0 0 0 233 1049 1385 1410 1339 1552 1726 1735 1844 1969 2018 1991 1870 1889 1574 1587 1652 1692 1737 1708 1775 1750 1631 1499 1555 1418
0 0 0 0 0 0 0 0 0 0 0 0 0 0 0 0 0 0 0 0 0 0 190 668 1357 1458 1229 1257 1394 1160 1242 1419 1624 1553 888 564 532 775 914 1062 906 991 1012 1460 1593 1459 1628 1473 1567
0 0 0 0 0 0 0 0 0 0 0 0 0 0 0 0 0 0 0 0 0 0 356 915 1488 1536 1414 1088 364 359 372 295 69 266 83 96 146 265 422 393 487 708 890 726 1124 1119 911 1290 1252
0 0 0 0 0 0 0 0 0 0 0 0 0 0 0 0 0 0 0 0 0 0 228 910 1221 1392 860 451 437 559 476 177 6 15 28 57 130 191 294 325 456 597 500 817 749 621 929 1111 1017
0 0 0 0 0 0 0 0 0 0 0 0 0 0 0 0 0 0 0 0 0 0 74 467 623 671 578 515 465 344 166 14 15 16 61 119 222 254 198 384 445 506 417 649 790 846 916 993 1201
0 0 0 0 0 0 0 0 0 0 0 0 0 0 0 0 0 0 0 0 0 0 0 216 336 268 224 135 126 266 252 109 22 20 52 64 136 239 258 191 257 240 109 135 100 283 645 642 433
0 0 0 0 0 0 0 0 0 0 0 0 0 0 0 0 0 0 0 0 0 0 0 68 44 12 10 21 46 99 244 176 210 73 59 84 101 127 200 151 99 15 0 0 0 0 11 145 235
0 0 0 0 0 0 0 0 0 0 0 0 0 0 0 0 0 0 0 0 0 0 0 0 0 0 36 41 53 50 47 2 2 92 28 25 38 95 205 95 26 0 0 0 0 0 0 37 72
0 0 0 0 0 0 0 0 0 0 0 0 0 0 0 0 0 0 0 0 0 0 0 0 0 2 21 19 28 10 3 0 5 66 194 77 192 53 172 99 38 0 0 0 0 0 0 25 65
0 0 0 0 0 0 0 0 0 0 0 0 0 0 0 0 0 0 0 0 0 0 0 0 0 0 0 0 0 0 0 0 0 35 113 91 133 176 73 113 52 1 0 0 0 0 12 33 13
0 0 0 0 0 7 5 0 0 0 0 0 0 0 0 0 0 0 0 0 0 0 0 0 0 0 0 0 0 0 0 0 0 0 0 5 25 77 110 106 41 15 0 0 3 0 0 1 11
0 0 14 75 16 0 8 2 0 0 0 0 0 0 0 0 0 0 0 0 0 0 0 0 0 0 0 0 0 0 0 0 0 0 0 0 0 0 0 1 2 14 17 23 29 1 0 0 0
CIN
0 0 0 0 0 0 0 0 0 0 0 0 0 -145 -67 -87 -58 -35 -460 -394 -381 -293 -263 -306 -167 -124 -101 -111 -121 -104 -78 -67 -57 -56 -58 -47 -31 -19 -14 -9 -5 -27 -83 -176 -175 -164 -136 -131 -107
0 0 0 0 0 0 -55 0 0 0 0 0 0 -120 -80 -57 -255 -382 -404 -403 -370 -306 -296 -323 -191 -135 -122 -123 -148 -147 -100 -84 -71 -61 -42 -31 -21 -23 -25 -19 -26 -70 -141 -247 -188 -151 -124 -136 -115
0 0 0 0 0 0 -54 0 0 0 0 0 -2 -125 -97 -107 -311 -325 -401 -396 -357 -314 -319 -298 -198 -161 -145 -165 -162 -163 -132 -111 -88 -59 -38 -23 -16 -18 -17 -15 -16 -80 -193 -221 -151 -109 -89 -117 -132
0 0 0 0 0 0 0 0 0 0 0 0 -10 -48 -136 -262 -245 -325 -387 -395 -349 -306 -325 -249 -198 -187 -178 -162 -167 -170 -156 -129 -97 -65 -45 -34 -42 -30 -22 -23 -30 -85 -219 -215 -157 -87 -75 -76 -114
0 0 0 0 0 0 0 0 0 0 0 0 -108 -45 -76 -205 -293 -301 -348 -364 -340 -311 -303 -269 -184 -159 -161 -147 -169 -176 -160 -142 -103 -67 -52 -44 -48 -54 -50 -50 -90 -121 -144 -164 -150 -98 -49 -45 -61
0 0 0 0 0 0 0 0 0 0 0 0 -79 -51 -64 -247 -242 -281 -314 -334 -318 -285 -277 -299 -196 -149 -141 -128 -146 -170 -166 -131 -100 -80 -60 -50 -48 -47 -53 -60 -91 -105 -108 -109 -103 -76 -57 -56 -73
0 0 0 0 0 0 0 0 0 0 0 0 -84 -21 -104 -228 -287 -303 -305 -330 -301 -252 -222 -255 -270 -198 -120 -125 -146 -177 -179 -139 -95 -67 -54 -41 -38 -42 -46 -56 -93 -129 -137 -138 -119 -98 -84 -100 -116
0 0 0 0 0 0 0 0 0 0 0 0 -90 -17 -34 -195 -292 -305 -306 -308 -285 -227 -201 -233 -253 -274 -259 -202 -125 -153 -161 -144 -122 -91 -73 -60 -52 -57 -65 -83 -81 -107 -136 -163 -151 -146 -150 -179 -227
0 0 0 0 0 0 0 0 0 0 0 0 0 0 0 -253 -305 -277 -282 -291 -257 -240 -210 -214 -268 -254 -271 -250 -197 -145 -144 -112 -96 -92 -72 -122 -181 -154 -144 -154 -155 -133 -135 -160 -203 -217 -243 -268 -282
0 0 0 0 0 0 0 0 0 0 0 0 0 -205 -231 -242 -234 -202 -208 -211 -242 -244 -233 -217 -243 -250 -259 -277 -218 -201 -197 -181 -174 -151 -110 -123 -117 -114 -139 -133 -99 -136 -116 -140 -167 -198 -209 -303 0
0 0 0 0 0 0 0 0 0 0 0 0 0 -143 -167 -167 -162 -156 -172 -162 -171 -194 -210 -222 -196 -210 -251 -270 -223 -195 -190 -152 -122 -107 -77 -72 -88 -95 -102 -106 -111 -109 -119 -167 -172 -193 -231 -280 -309
0 0 0 0 0 0 0 0 0 0 0 0 0 0 -126 -116 -110 -123 -128 -140 -169 -198 -212 -217 -190 -176 -204 -221 -225 -206 -206 -167 -141 -116 -68 -68 -70 -72 -72 -66 -69 -85 -102 -130 -150 -181 -220 -243 -259
0 0 0 0 0 0 0 0 0 0 0 0 0 0 0 -94 -83 -86 -96 -103 -131 -166 -176 -215 -203 -181 -169 -155 -181 -183 -186 -160 -125 -97 -78 -63 -67 -68 -65 -66 -58 -59 -66 -78 -84 -104 -135 -190 -246
0 0 0 0 0 0 0 0 0 0 0 0 0 0 0 0 0 -41 -176 -103 -121 -134 -159 -183 -212 -187 -163 -159 -135 -148 -125 -112 -90 -92 -105 -109 -69 -43 -55 -55 -57 -53 -48 -44 -55 -58 -79 -116 -167
0 0 0 0 0 0 0 0 0 0 0 0 0 0 0 0 0 0 0 -12 -128 -113 -119 -168 -226 -198 -168 -166 -136 -133 -117 -95 -84 -87 -106 -118 -120 -78 -39 -46 -48 -48 -38 -45 -38 -57 -71 -93 -111
0 0 0 0 0 0 0 0 0 0 0 0 0 0 0 0 0 0 0 0 0 -254 -205 -159 -183 -210 -181 -171 -147 -129 -120 -99 -88 -106 -113 -109 -81 -66 -20 -34 -49 -53 -56 -66 -58 -49 -76 -57 -89
0 0 0 0 0 0 0 0 0 0 0 0 0 0 0 0 0 0 0 0 0 0 0 -254 -190 -173 -192 -166 -154 -119 -92 -71 -80 -72 -56 -60 -48 -52 -4 -39 -36 -21 -26 -53 -62 -44 -71 -56 -75
0 0 0 0 0 0 0 0 0 0 0 0 0 0 0 0 0 0 0 0 0 0 -86 -275 -241 -228 -196 -177 -149 -103 -76 -59 -67 -80 -78 -92 -98 -99 -51 -48 -36 -37 -43 -46 -40 -47 -51 -67 -75
0 0 0 0 0 0 0 0 0 0 0 0 0 0 0 0 0 0 0 0 0 0 0 -291 -254 -272 -231 -207 -161 -112 -92 -55 -38 -18 -22 -42 -51 -93 -84 -61 -55 -44 -36 -34 -41 -43 -44 -42 -54
0 0 0 0 0 0 0 0 0 0 0 0 0 0 0 0 0 0 0 0 0 0 -298 -257 -243 -265 -265 -220 -176 -176 -134 -70 -36 -43 -143 -180 -189 -162 -130 -110 -121 -107 -93 -49 -35 -37 -19 -38 -26
0 0 0 0 0 0 0 0 0 0 0 0 0 0 0 0 0 0 0 0 0 0 -287 -252 -247 -260 -238 -228 -342 -325 -265 -247 -298 -235 -288 -293 -273 -222 -176 -181 -155 -111 -81 -97 -44 -36 -44 -11 -23
0 0 0 0 0 0 0 0 0 0 0 0 0 0 0 0 0 0 0 0 0 0 -269 -261 -270 -240 -310 -400 -329 -263 -221 -243 -151 -338 -309 -284 -256 -213 -180 -156 -120 -82 -83 -36 -49 -60 -10 -2 -6
0 0 0 0 0 0 0 0 0 0 0 0 0 0 0 0 0 0 0 0 0 0 -353 -353 -371 -333 -354 -352 -326 -317 -287 -339 -375 -354 -318 -254 -218 -171 -159 -101 -80 -56 -58 -26 -15 -3 0 0 0
0 0 0 0 0 0 0 0 0 0 0 0 0 0 0 0 0 0 0 0 0 0 0 -473 -435 -470 -484 -505 -441 -306 -266 -275 -306 -316 -233 -212 -180 -140 -113 -117 -84 -64 -78 -60 -52 -12 0 0 -2
0 0 0 0 0 0 0 0 0 0 0 0 0 0 0 0 0 0 0 0 0 0 0 -503 -507 -362 -557 -480 -404 -289 -196 -210 -178 -223 -190 -188 -167 -142 -111 -140 -137 -84 0 0 0 0 -17 -16 -17
0 0 0 0 0 0 0 0 0 0 0 0 0 0 0 0 0 0 0 0 0 0 0 0 0 0 -340 -299 -256 -252 -253 -30 -30 -174 -157 -172 -153 -119 -97 -121 -139 -4 0 0 0 0 0 -49 -31
0 0 0 0 0 0 0 0 0 0 0 0 0 0 0 0 0 0 0 0 0 0 0 0 0 -122 -255 -232 -215 -279 -262 0 -59 -170 -128 -146 -99 -102 -87 -100 -106 0 0 0 0 0 0 -64 -49
0 0 0 0 0 0 0 0 0 0 0 0 0 0 0 0 0 0 0 0 0 0 0 0 0 0 0 0 0 0 0 0 0 -201 -151 -142 -89 -74 -62 -76 -90 -12 0 0 0 0 -77 -94 -47
0 0 0 -1 0 0 0 0 0 0 0 0 0 0 0 0 0 0 0 0 0 0 0 0 0 0 0 0 0 0 0 0 0 0 -72 -82 -156 -106 -76 -56 -59 -71 0 0 -25 0 0 -15 -82
0 0 -38 -2 -8 -1 -23 0 0 0 0 0 0 0 0 0 0 0 0 0 0 0 0 0 0 0 0 0 0 0 0 0 0 0 0 0 0 0 0 -6 -4 -77 -74 -83 -72 -10 0 0 0
Wind_Speed
10 7 3 4 5 2 3 2 3 5 6 1 8 6 3 2 1 3 4 7 15 18 17 17 14 14 12 12 16 16 16 17 17 17 17 17 16 15 13 12 11 11 11 11 11 12 12 12 11
7 3 3 2 5 7 5 3 4 5 12 12 2 5 4 2 2 8 13 10 19 18 17 17 16 15 14 12 14 16 16 16 16 16 16 15 14 14 13 12 11 11 11 11 11 12 11 10 10
4 2 4 4 3 10 6 5 4 10 13 4 2 1 1 2 3 13 5 16 20 18 17 17 18 17 16 14 13 14 15 15 16 16 15 14 13 12 11 10 9 10 10 10 11 11 10 9 9
2 3 2 5 9 6 6 5 3 9 3 2 3 2 3 5 8 5 16 18 19 16 16 18 18 18 18 18 17 16 15 15 15 15 15 14 14 12 10 10 9 9 10 11 11 10 9 9 9
2 1 4 5 8 3 5 4 2 6 6 5 2 2 4 3 6 12 16 16 19 16 14 17 15 16 17 17 17 17 17 16 15 15 14 13 12 11 11 10 9 9 9 10 10 9 7 7 7
1 2 5 11 5 5 3 5 2 3 5 6 4 4 4 3 8 12 14 16 16 16 15 15 14 13 14 15 15 16 16 15 14 14 13 12 11 9 9 8 8 6 5 5 6 5 4 4 4
2 2 5 3 5 4 4 5 4 2 6 2 0 6 1 4 5 12 12 14 14 14 14 13 15 14 14 15 15 15 15 15 14 12 11 10 10 9 8 7 7 7 6 4 4 3 3 4 4
2 2 3 4 5 5 2 3 5 1 3 5 3 6 2 5 10 11 12 13 14 13 13 14 13 14 13 13 14 15 15 15 14 13 11 10 9 8 7 5 5 3 2 2 1 2 3 5 5
2 6 9 8 5 3 1 2 3 3 4 2 2 1 1 16 13 12 12 11 11 11 12 12 13 13 13 12 12 12 13 12 11 11 10 9 8 9 9 6 6 7 5 2 3 3 4 4 7
8 8 13 7 6 4 1 1 5 1 7 2 2 5 12 16 14 13 13 14 14 15 14 12 12 12 12 10 11 11 10 10 10 9 10 8 7 6 6 5 7 7 7 8 7 7 7 7 5
6 13 13 11 10 6 5 6 3 2 1 2 2 7 13 13 13 12 12 14 15 13 12 13 12 12 13 10 9 7 6 7 7 10 9 8 6 6 6 5 5 6 7 5 7 7 7 7 6
9 11 5 5 6 7 7 2 5 5 5 3 5 1 11 12 12 13 12 13 13 14 13 14 13 12 12 9 9 9 8 8 7 9 10 7 6 7 6 5 5 5 4 5 6 5 6 7 9
11 12 9 18 21 15 10 12 11 10 12 10 12 6 9 12 13 12 12 11 11 13 14 15 15 14 12 12 9 9 8 8 9 8 9 8 8 7 6 6 6 6 5 6 6 7 7 8 9
16 17 18 10 16 8 7 9 8 10 11 10 5 8 6 8 11 8 9 13 14 14 16 16 18 17 15 13 13 9 8 8 8 8 7 10 7 7 7 7 7 7 7 7 6 7 7 7 8
7 14 17 18 13 12 2 12 12 11 12 13 10 8 8 9 6 11 11 13 16 16 15 17 17 16 17 16 13 10 9 9 8 7 8 9 9 9 10 7 8 8 7 8 8 8 7 8 8
11 10 9 10 15 8 8 22 5 11 6 13 11 8 8 11 13 12 10 11 10 10 13 14 13 15 15 14 12 9 9 9 8 7 7 10 10 9 8 7 7 7 6 7 7 7 7 8 7
9 12 13 3 14 9 18 11 7 1 6 10 9 10 10 12 11 12 13 13 11 12 10 13 14 15 16 13 10 10 11 9 8 7 7 10 10 8 11 6 7 7 7 6 7 8 7 7 7
13 12 7 14 8 7 12 7 6 3 6 10 10 10 11 14 16 14 9 10 11 9 8 8 10 12 13 10 10 8 8 7 7 6 6 8 7 9 8 7 7 6 7 7 7 8 7 8 8
9 8 10 5 4 5 10 7 9 4 7 9 8 8 11 13 13 5 6 9 10 10 10 12 12 12 11 10 9 8 9 7 6 5 7 7 6 7 8 7 7 6 7 8 8 8 9 9 7
8 7 6 5 4 4 5 7 8 6 5 5 5 7 9 7 7 5 4 5 9 10 12 11 13 13 11 9 7 5 8 5 5 5 6 6 7 6 6 5 4 4 4 6 7 8 7 7 6
6 10 6 6 1 3 3 6 6 5 3 5 6 6 5 5 7 4 3 7 9 11 12 12 12 12 11 9 7 7 8 7 5 7 5 5 5 5 5 4 3 3 4 4 6 7 8 8 6
11 10 10 9 6 7 3 4 5 5 6 6 4 3 2 3 3 4 5 6 10 13 13 13 10 11 10 13 10 11 8 9 6 6 5 5 5 5 5 4 4 3 2 4 4 5 6 6 7
6 9 12 9 7 4 5 5 4 3 7 7 3 1 3 5 6 10 10 8 9 9 10 9 9 9 11 11 12 9 10 7 8 6 8 5 6 7 7 7 5 4 4 4 5 5 6 7 6
10 5 5 3 3 8 7 7 6 6 7 2 0 4 6 9 9 9 10 9 8 6 8 8 10 10 12 11 12 12 12 10 9 8 7 6 6 6 7 7 6 5 5 5 5 5 6 6 6
6 8 4 5 6 5 3 5 7 2 2 3 7 8 8 10 11 11 11 10 6 5 7 10 11 11 10 12 11 12 11 11 10 9 8 9 7 7 9 8 8 6 6 6 5 5 6 6 7
10 10 5 7 5 3 2 5 2 3 3 3 4 5 8 10 9 10 9 7 5 4 9 12 12 12 11 12 11 8 8 6 6 9 7 8 8 9 10 10 9 9 8 6 5 5 6 6 7
7 7 3 3 3 3 3 2 4 2 4 6 8 7 9 10 10 9 8 7 5 6 8 11 12 10 9 8 5 5 6 8 8 9 8 7 8 8 10 11 11 10 9 9 7 6 8 7 8
9 12 6 3 7 8 4 5 7 7 6 6 10 11 9 13 13 10 9 5 3 3 3 5 4 4 5 4 4 4 5 7 8 7 10 9 9 10 10 12 12 12 11 11 10 8 9 9 8
7 6 3 3 2 7 8 5 2 9 9 10 10 9 9 10 10 10 8 7 6 5 4 4 4 5 5 5 5 6 7 8 8 8 9 10 10 11 12 12 12 13 13 13 12 12 11 11 11
2 4 4 6 8 0 4 7 2 11 7 5 7 9 10 8 7 7 6 6 7 8 8 7 7 7 6 5 5 4 4 4 5 7 8 9 11 11 12 13 14 15 15 15 15 15 14 15 15
Wind_Direction
311 321 190 193 224 234 203 205 292 328 336 89 319 241 252 11 239 355 124 143 141 149 149 157 153 151 150 144 134 129 129 130 130 129 128 130 134 137 139 144 145 144 142 139 138 135 133 132 134
321 306 192 169 230 204 196 170 193 303 310 318 248 201 211 109 80 106 134 153 151 148 152 155 154 153 152 148 136 131 131 130 129 127 130 133 138 140 143 146 147 150 150 147 146 145 143 142 142
295 1 256 226 203 215 209 171 151 303 309 293 274 319 130 76 145 153 136 154 154 156 158 155 155 155 152 149 140 131 130 130 129 131 135 138 139 139 143 147 149 153 151 152 154 153 150 152 154
328 176 133 233 213 205 219 129 308 311 329 89 271 170 112 6 135 144 142 152 156 157 160 152 156 158 156 154 151 144 140 138 137 140 142 144 144 144 147 150 156 160 162 165 165 162 161 162 164
51 238 212 226 226 259 223 264 257 295 294 323 181 193 122 99 92 131 145 156 159 159 163 159 159 160 156 157 154 148 146 145 145 146 148 149 150 152 156 161 167 171 171 174 174 171 171 175 179
137 293 212 227 214 226 235 219 211 256 294 306 233 169 137 107 137 147 151 160 163 161 163 160 158 160 159 159 156 151 148 149 151 151 152 152 155 160 165 168 171 177 180 183 182 182 188 192 208
220 244 238 226 235 241 202 182 162 294 286 279 160 186 352 166 131 147 149 156 160 164 165 165 170 170 167 162 159 157 154 155 155 154 154 157 162 168 174 176 177 184 183 188 192 208 215 224 237
157 247 237 217 235 245 168 265 112 229 301 326 203 188 186 128 140 140 144 156 162 171 175 171 174 176 179 172 166 162 159 158 158 159 162 163 168 174 181 185 195 209 213 204 228 262 282 273 259
173 233 245 240 196 252 293 351 85 293 286 306 318 294 97 136 141 139 141 154 170 181 184 182 180 181 183 179 173 165 164 160 160 166 168 168 194 192 191 194 171 183 183 221 205 242 239 267 278
210 230 238 252 237 258 264 310 313 324 344 231 151 76 132 145 155 161 168 173 187 189 190 189 189 188 184 182 178 182 177 183 184 185 185 199 197 204 218 211 208 203 203 183 195 207 235 235 250
189 238 249 266 243 248 259 290 340 360 308 343 144 149 152 163 167 180 182 191 196 194 194 197 193 191 194 189 183 183 185 183 188 191 193 199 198 198 206 209 210 219 205 228 212 215 219 246 255
219 236 242 273 247 241 249 268 272 266 228 352 330 193 163 176 184 188 190 192 191 198 202 196 201 197 199 198 196 189 192 188 188 197 197 200 205 208 218 222 223 224 220 225 232 238 247 236 246
243 223 203 255 255 250 271 258 265 252 261 279 289 249 196 187 196 202 205 202 198 205 204 202 200 202 200 203 203 204 203 196 195 196 201 214 218 216 218 225 230 236 224 227 236 244 239 245 246
198 223 236 252 251 244 239 256 198 242 245 262 253 228 223 203 196 205 215 214 207 210 211 204 205 202 199 205 204 202 202 198 200 196 201 211 222 220 223 225 232 239 245 247 247 246 258 257 264
179 199 223 211 247 258 182 247 214 243 250 258 255 244 227 226 217 214 211 211 216 215 214 208 205 201 205 205 202 203 199 199 201 198 204 206 207 221 227 227 235 240 243 248 251 252 250 256 257
197 229 228 209 196 229 174 259 248 223 203 245 256 245 232 235 227 233 226 227 214 223 217 210 203 202 206 207 202 204 197 196 201 194 198 201 208 210 235 231 239 241 238 241 243 252 256 256 257
191 209 210 238 200 176 200 243 230 46 198 239 242 250 250 252 236 232 232 220 217 211 207 207 203 203 204 202 202 201 204 209 205 204 207 208 208 211 232 241 251 249 247 245 245 244 243 260 261
184 203 195 205 187 212 195 230 273 266 228 229 243 253 251 244 242 240 221 231 234 223 218 220 203 200 193 188 191 198 201 203 205 207 209 204 210 216 225 238 244 244 249 250 252 264 258 267 270
190 200 213 195 163 167 199 219 264 277 232 234 239 272 267 244 244 260 243 230 222 212 213 215 201 188 176 185 184 192 194 182 180 183 192 193 203 207 213 232 240 239 245 254 254 257 259 261 251
199 201 205 260 252 202 219 242 264 251 239 234 264 279 262 248 246 264 201 196 216 229 212 206 210 184 184 186 180 174 163 160 150 146 135 156 165 166 182 200 211 227 236 244 252 247 252 254 238
203 222 207 243 73 234 255 245 230 233 237 243 248 266 261 238 269 251 222 191 195 224 222 218 207 188 177 168 142 111 110 113 139 150 155 157 154 162 171 169 185 205 228 258 261 255 244 253 242
205 204 216 223 210 229 224 240 216 218 238 235 243 261 313 349 309 285 243 227 213 221 206 212 205 190 165 159 150 151 152 156 159 165 162 165 173 169 169 182 186 204 230 242 246 255 261 258 257
218 191 207 216 208 208 173 243 195 237 230 231 184 305 335 346 331 315 319 302 260 245 227 214 188 178 165 160 152 148 149 152 149 159 164 175 177 192 193 192 189 210 233 238 250 257 253 253 252
153 118 78 99 176 240 195 222 191 201 218 216 279 356 351 345 340 332 325 322 301 260 214 188 165 148 151 156 159 157 156 155 161 167 169 180 186 193 200 190 192 204 223 238 255 268 262 260 265
175 169 167 207 217 253 43 225 273 163 316 316 329 340 2 353 348 344 340 330 307 247 196 154 145 141 149 155 167 170 166 169 169 171 183 183 192 202 202 201 203 208 215 224 243 254 268 263 260
189 196 196 207 216 221 108 242 127 38 28 25 23 24 33 29 13 10 360 344 313 218 161 143 147 150 168 173 175 174 165 176 194 201 197 201 204 203 201 206 212 216 216 218 220 242 252 250 248
159 201 239 122 57 250 214 210 248 124 100 88 65 56 45 36 20 27 36 30 33 147 157 161 161 160 175 185 184 195 203 214 217 218 214 219 221 213 206 207 214 221 221 220 217 228 233 242 245
217 151 166 195 216 234 194 251 245 144 113 76 69 57 41 17 20 18 15 42 66 56 60 57 45 40 28 356 319 281 277 268 266 262 249 247 248 234 223 216 218 222 222 222 222 229 227 229 238
151 174 94 129 250 234 248 224 148 147 113 93 74 41 18 12 7 11 13 24 22 23 33 34 11 349 337 310 288 277 273 260 250 250 255 256 263 259 258 255 252 245 235 228 225 230 234 231 234
53 124 182 219 193 141 275 255 147 142 123 77 43 12 1 11 2 2 8 27 46 49 44 52 55 60 52 43 28 22 341 297 275 273 275 266 252 252 251 252 251 250 247 243 237 237 234 231 233